[[{"header":{"parameterUnit":"m.s-1","parameterCategory":1,"la1":30.2991,"la2":30.254,"lo1":-89.0895,"lo2":-89.0444,"dy":0.0017,"dx":0.0017,"nx":28,"ny":28,"refTime":"2026-02-25T09:00:00:Z","depth":0,"parameterNumber":2,"parameterNumberName":"U-component_of_WINDS"},"data":[0,0,0,0,0,0,0,0,0,0,0,0,0,0,0,0,0,0,0,0,0,0,0,0,0,0,0,0,0,0,0,0,0,0,0,0,0,0,0,0,0,0,0,0,0,0,0,0,0,0,0,0,0,0,0,0,0,0,-0.5729,-0.5729,0,-0.5762,-0.5762,-0.5762,-0.5783,-0.5783,-0.5783,-0.5783,-0.5817,-0.5817,-0.5818,0,0,0,0,0,0,0,0,0,0,0,0,0,-0.5682,-0.5683,-0.5729,-0.5729,-0.5729,-0.5762,-0.5762,-0.5763,-0.5783,-0.5783,-0.5783,-0.5783,-0.5816,-0.5817,-0.5818,0,0,0,0,0,0,0,0,0,0,0,0,0,-0.5708,-0.5683,-0.5729,-0.5743,-0.5745,-0.5762,-0.5762,-0.5763,-0.5783,-0.5783,-0.5783,-0.5783,-0.5816,-0.5817,-0.5818,-0.5823,0,0,-0.5822,-0.5823,0,0,0,0,0,0,0,0,-0.5706,-0.5709,-0.5741,-0.5742,-0.5744,-0.5768,-0.5758,-0.5783,-0.5783,-0.5768,-0.5783,-0.5783,-0.58,-0.5803,-0.5809,-0.5824,-0.5826,-0.5822,-0.5823,-0.5823,-0.5824,0,0,0,0,0,0,0,-0.5704,-0.5708,-0.5742,-0.5741,-0.5743,-0.5748,-0.5752,-0.5763,-0.5783,-0.577,-0.5771,-0.5775,-0.5801,-0.5808,-0.581,-0.5826,-0.5822,-0.5823,-0.5824,-0.5824,-0.5847,-0.5847,0,0,0,0,0,0,-0.57,-0.5706,-0.5741,-0.5743,-0.5725,-0.5749,-0.5753,-0.576,-0.5783,-0.5787,-0.5775,-0.5776,-0.5805,-0.5808,-0.5811,-0.5817,-0.5823,-0.5825,-0.5825,-0.5847,-0.5847,-0.5847,0,0,0,0,0,0,-0.5699,-0.5703,-0.5739,-0.5725,-0.573,-0.5749,-0.5757,-0.5761,-0.5767,-0.5787,-0.579,-0.5777,-0.5806,-0.5809,-0.582,-0.5819,-0.5825,-0.5826,-0.5847,-0.5847,-0.5847,-0.583,0,0,0,0,0,0,-0.5698,-0.5703,-0.5705,-0.5725,-0.5731,-0.5747,-0.5757,-0.5761,-0.5769,-0.5771,-0.579,-0.5794,-0.5806,-0.5818,-0.5821,-0.582,-0.5827,-0.5847,-0.5847,-0.5847,-0.5831,-0.5829,-0.5828,0,0,0,0,0,-0.5696,-0.5699,-0.5705,-0.5709,-0.5734,-0.5747,-0.5751,-0.5765,-0.5769,-0.5771,-0.5784,-0.5793,-0.5818,-0.5819,-0.5822,-0.5822,-0.5847,-0.5847,-0.5847,-0.5831,-0.583,-0.5828,0,0,0,0,0,0,-0.5678,-0.5702,-0.5709,-0.5718,-0.573,-0.5751,-0.5754,-0.5763,-0.5774,-0.5775,-0.5793,-0.5797,-0.5805,-0.5815,-0.5815,-0.5827,-0.5834,-0.5834,-0.5821,-0.5819,-0.5818,-0.5815,-0.5828,0,0,0,0,0,-0.5675,-0.5684,-0.5705,-0.5711,-0.5717,-0.5734,-0.5741,-0.5751,-0.5764,-0.577,-0.5783,-0.5796,-0.5807,-0.5814,-0.5825,-0.5832,-0.5837,-0.5834,-0.5833,-0.5831,-0.5832,-0.5836,-0.5835,-0.5846,-0.5846,-0.5846,0,0,-0.5669,-0.5683,-0.5688,-0.5708,-0.5719,-0.5728,-0.5739,-0.5748,-0.5755,-0.5771,-0.5782,-0.5792,-0.5807,-0.5816,-0.5821,-0.5824,-0.583,-0.5831,-0.583,-0.5831,-0.5835,-0.5834,-0.5833,-0.5845,-0.5845,-0.5845,0,0,-0.5663,-0.5675,-0.5681,-0.5692,-0.5708,-0.5719,-0.5721,-0.574,-0.5747,-0.5758,-0.5771,-0.5779,-0.5797,-0.5808,-0.5815,-0.5813,-0.5822,-0.5816,-0.5809,-0.5813,-0.5812,-0.5811,-0.581,-0.5809,-0.5816,-0.5816,-0.5816,0,-0.5654,-0.5668,-0.5683,-0.5692,-0.5699,-0.5715,-0.5721,-0.5731,-0.575,-0.5755,-0.5759,-0.5782,-0.5794,-0.5805,-0.5804,-0.581,-0.5812,-0.5814,-0.5811,-0.581,-0.581,-0.5809,-0.5808,-0.5815,-0.5815,-0.5815,-0.5815,0,-0.5655,-0.5665,-0.5668,-0.5686,-0.5694,-0.5701,-0.5718,-0.5724,-0.5733,-0.5744,-0.5755,-0.5769,-0.5783,-0.5787,-0.5796,-0.5799,-0.5801,-0.5807,-0.5814,-0.5808,-0.5807,-0.5807,-0.5814,-0.5814,-0.5814,-0.5815,0,0,-0.5639,-0.5665,-0.5666,-0.5674,-0.5693,-0.57,-0.5708,-0.5722,-0.5727,-0.5739,-0.5746,-0.5761,-0.5768,-0.5776,-0.5787,-0.579,-0.5786,-0.5796,-0.5797,-0.5794,-0.5791,-0.5785,-0.5784,-0.5793,-0.5793,-0.5793,-0.5789,0,-0.5635,-0.565,-0.5664,-0.5673,-0.5682,-0.5697,-0.5703,-0.5716,-0.5726,-0.5735,-0.5746,-0.5757,-0.5764,-0.577,-0.5774,-0.5786,-0.5786,-0.5786,-0.5799,-0.5799,-0.5794,-0.5784,-0.5778,-0.5775,-0.5789,-0.5789,-0.5789,0,-0.5633,-0.5645,-0.5655,-0.5673,-0.5677,-0.5683,-0.5696,-0.5705,-0.5719,-0.5726,-0.5735,-0.5746,-0.5755,-0.5761,-0.5773,-0.5773,-0.5779,-0.5786,-0.5786,-0.5787,-0.5793,-0.5785,-0.5774,-0.5773,-0.5789,-0.5789,-0.5789,0,-0.5619,-0.5638,-0.5646,-0.5653,-0.5674,-0.5677,-0.5686,-0.57,-0.5707,-0.5719,-0.5724,-0.5737,-0.5743,-0.5753,-0.5767,-0.577,-0.5777,-0.5785,-0.5783,-0.5783,-0.5784,-0.5784,-0.5773,-0.5788,-0.5788,-0.5788,-0.5788,0,-0.5614,-0.562,-0.564,-0.5646,-0.5652,-0.5668,-0.5674,-0.5684,-0.5697,-0.5704,-0.5717,-0.5724,-0.5742,-0.5751,-0.5762,-0.577,-0.5773,-0.5779,-0.5782,-0.5777,-0.5777,-0.5781,-0.5782,-0.5788,-0.5788,-0.5788,-0.5788,0,-0.56,-0.5614,-0.5624,-0.5643,-0.5648,-0.5652,-0.5668,-0.5673,-0.5684,-0.5693,-0.5696,-0.5713,-0.5724,-0.5739,-0.5755,-0.5762,-0.5769,-0.5773,-0.5764,-0.5765,-0.5763,-0.5763,-0.5755,-0.5755,-0.577,-0.577,-0.577,0,-0.5595,-0.56,-0.5619,-0.5624,-0.5633,-0.5642,-0.5649,-0.5664,-0.5671,-0.5688,-0.5691,-0.5703,-0.5713,-0.573,-0.5744,-0.5756,-0.5761,-0.5757,-0.5762,-0.5758,-0.576,-0.5759,-0.576,-0.5755,-0.5755,-0.5755,-0.5755,0,-0.5585,-0.5592,-0.5601,-0.5614,-0.5622,-0.5632,-0.5643,-0.5647,-0.5665,-0.5672,-0.5683,-0.5691,-0.5707,-0.5718,-0.5732,-0.5741,-0.5751,-0.5753,-0.5753,-0.5749,-0.5743,-0.5746,-0.576,-0.5753,-0.5753,-0.5753,-0.5753,-0.5754,-0.5575,-0.558,-0.5594,-0.5604,-0.5614,-0.5624,-0.5629,-0.5641,-0.5651,-0.5664,-0.5673,-0.5683,-0.5697,-0.5717,-0.5725,-0.5734,-0.5738,-0.5738,-0.5738,-0.5738,-0.5736,-0.5742,-0.5736,-0.5737,-0.5737,-0.5737,-0.5737,0,-0.5565,-0.5575,-0.5584,-0.5599,-0.5607,-0.5615,-0.5628,-0.5634,-0.5643,-0.5655,-0.5665,-0.5677,-0.5688,-0.5703,-0.5715,-0.5719,-0.5724,-0.5722,-0.5722,-0.5723,-0.5733,-0.5731,-0.5718,-0.5718,-0.5718,-0.5718,-0.5718,-0.5718,-0.5561,-0.5569,-0.5577,-0.559,-0.56,-0.561,-0.5616,-0.5625,-0.5635,-0.5648,-0.5657,-0.5667,-0.568,-0.5693,-0.5703,-0.5708,-0.5711,-0.5708,-0.5713,-0.5721,-0.5723,-0.5724,-0.5723,-0.5708,-0.5708,-0.5703,-0.5703,-0.5703]},{"header":{"parameterUnit":"m.s-1","parameterCategory":1,"la1":30.2991,"la2":30.254,"lo1":-89.0895,"lo2":-89.0444,"dy":0.0017,"dx":0.0017,"nx":28,"ny":28,"refTime":"2026-02-25T09:00:00:Z","depth":0,"parameterNumber":3,"parameterNumberName":"V-component_of_WINDS"},"data":[0,0,0,0,0,0,0,0,0,0,0,0,0,0,0,0,0,0,0,0,0,0,0,0,0,0,0,0,0,0,0,0,0,0,0,0,0,0,0,0,0,0,0,0,0,0,0,0,0,0,0,0,0,0,0,0,0,0,2.3681,2.3681,0,2.3738,2.3739,2.374,2.3744,2.3743,2.3743,2.3742,2.38,2.3802,2.3804,0,0,0,0,0,0,0,0,0,0,0,0,0,2.3574,2.3576,2.3681,2.3682,2.3682,2.3738,2.3739,2.374,2.3744,2.3743,2.3743,2.3742,2.3799,2.3801,2.3804,0,0,0,0,0,0,0,0,0,0,0,0,0,2.3625,2.3577,2.3681,2.3691,2.3693,2.3738,2.3739,2.374,2.3744,2.3743,2.3742,2.3741,2.3798,2.3801,2.3804,2.3843,0,0,2.3814,2.3815,0,0,0,0,0,0,0,0,2.3622,2.3629,2.3689,2.3691,2.3692,2.3733,2.3723,2.3774,2.3744,2.3725,2.3742,2.3741,2.3778,2.3783,2.3796,2.3845,2.3848,2.3814,2.3816,2.3818,2.3819,0,0,0,0,0,0,0,2.3619,2.3626,2.3703,2.369,2.3692,2.3693,2.3699,2.3732,2.3756,2.3726,2.3727,2.3734,2.3779,2.3793,2.3797,2.3849,2.3814,2.3817,2.3819,2.382,2.3934,2.3935,0,0,0,0,0,0,2.3613,2.3623,2.3702,2.3705,2.3654,2.3695,2.3702,2.3721,2.3756,2.376,2.3734,2.3734,2.3788,2.3793,2.3799,2.3847,2.3818,2.3821,2.3822,2.3933,2.3934,2.3935,0,0,0,0,0,0,2.3611,2.362,2.3699,2.3665,2.3675,2.3698,2.3719,2.3723,2.3736,2.3762,2.3766,2.3744,2.3787,2.3795,2.3832,2.3849,2.3822,2.3825,2.3932,2.3933,2.3935,2.3944,0,0,0,0,0,0,2.3608,2.3619,2.3634,2.3665,2.3677,2.3732,2.372,2.3724,2.3742,2.3741,2.3772,2.3776,2.3787,2.3828,2.3835,2.3853,2.3827,2.393,2.3932,2.3934,2.3942,2.3945,2.3948,0,0,0,0,0,2.3604,2.3634,2.3635,2.3644,2.3696,2.3733,2.3739,2.3752,2.3743,2.3759,2.3775,2.3775,2.3846,2.3831,2.384,2.3859,2.3929,2.3932,2.3934,2.3941,2.3945,2.3948,0,0,0,0,0,0,2.3604,2.3638,2.364,2.368,2.3704,2.3733,2.3753,2.3756,2.3782,2.378,2.3794,2.3801,2.3838,2.3852,2.3835,2.3899,2.3887,2.3891,2.3888,2.3893,2.3896,2.3892,2.383,0,0,0,0,0,2.3609,2.3636,2.3664,2.3698,2.3709,2.3729,2.3746,2.3753,2.3778,2.3788,2.3807,2.383,2.3858,2.3876,2.3903,2.3944,2.3951,2.3961,2.3964,2.3967,2.3971,2.3995,2.4,2.3944,2.3944,2.3944,0,0,2.3619,2.3641,2.3658,2.3698,2.3717,2.3746,2.3738,2.3767,2.3789,2.3792,2.3829,2.3844,2.3871,2.3911,2.3929,2.3924,2.3988,2.397,2.3972,2.3975,2.3998,2.4003,2.4008,2.3945,2.3945,2.3945,0,0,2.3653,2.3672,2.3702,2.3721,2.375,2.3764,2.3771,2.38,2.3811,2.3848,2.3852,2.3877,2.3924,2.3943,2.3959,2.4001,2.4002,2.4009,2.4026,2.4049,2.4054,2.4058,2.4073,2.4079,2.4013,2.4013,2.4013,0,2.3662,2.3705,2.3717,2.3748,2.3766,2.3771,2.3802,2.382,2.3856,2.3868,2.3861,2.3922,2.394,2.3985,2.3995,2.4008,2.4017,2.4006,2.4052,2.4056,2.406,2.4075,2.4081,2.4013,2.4013,2.4013,2.4013,0,2.3715,2.3745,2.3766,2.3801,2.3822,2.3852,2.3869,2.3888,2.3894,2.3908,2.3946,2.3969,2.4001,2.4011,2.4017,2.4057,2.4053,2.4049,2.4037,2.4066,2.4081,2.4086,2.4014,2.4014,2.4014,2.4014,0,0,2.3751,2.3793,2.3801,2.3817,2.385,2.3873,2.3904,2.3935,2.3952,2.3976,2.4003,2.4043,2.404,2.4058,2.4066,2.4086,2.4118,2.4079,2.408,2.4087,2.4165,2.4169,2.4176,2.4119,2.412,2.4121,2.4164,0,2.3789,2.3844,2.3856,2.3904,2.3932,2.3937,2.3964,2.3987,2.4001,2.4026,2.4041,2.407,2.4062,2.4074,2.4094,2.411,2.4135,2.4107,2.4144,2.4146,2.4139,2.4183,2.4187,2.4226,2.4169,2.417,2.4171,0,2.384,2.3867,2.3918,2.3948,2.396,2.3984,2.4014,2.4039,2.4065,2.4073,2.4094,2.41,2.4132,2.4118,2.4163,2.4144,2.416,2.417,2.4172,2.4177,2.4161,2.419,2.4239,2.4245,2.418,2.4179,2.4178,0,2.3863,2.3911,2.3948,2.3962,2.3997,2.4014,2.403,2.4055,2.4073,2.41,2.4112,2.4141,2.4158,2.4181,2.4194,2.4183,2.4238,2.4225,2.4247,2.4247,2.4259,2.4258,2.4312,2.4267,2.4267,2.4267,2.4267,0,2.3905,2.3936,2.3959,2.3982,2.4017,2.4031,2.4065,2.408,2.4103,2.4129,2.4134,2.4158,2.4174,2.4201,2.4211,2.4248,2.4254,2.4263,2.4265,2.4263,2.4262,2.4274,2.4272,2.4269,2.4268,2.4268,2.4268,0,2.3936,2.3953,2.3994,2.4024,2.4032,2.4057,2.4083,2.4105,2.4118,2.4151,2.416,2.4181,2.4213,2.4228,2.4267,2.4274,2.4315,2.4316,2.4307,2.4308,2.4329,2.4328,2.4394,2.4404,2.4351,2.4352,2.4352,0,2.3962,2.3987,2.402,2.4038,2.4054,2.4082,2.4102,2.4116,2.4136,2.4167,2.4186,2.4218,2.4244,2.4294,2.4313,2.4343,2.4345,2.4366,2.4349,2.4346,2.4346,2.4345,2.4348,2.4369,2.4369,2.437,2.437,0,2.4008,2.4015,2.4042,2.4073,2.4096,2.4121,2.4145,2.416,2.4178,2.42,2.4232,2.4253,2.4293,2.4325,2.4356,2.4371,2.4374,2.4375,2.4382,2.438,2.4375,2.4379,2.4316,2.4374,2.4373,2.4373,2.4373,2.4373,2.4038,2.406,2.4087,2.4118,2.4138,2.4161,2.4184,2.42,2.4228,2.4262,2.4269,2.4303,2.4329,2.4372,2.4388,2.4415,2.4411,2.442,2.4423,2.4426,2.4427,2.4369,2.4421,2.4421,2.4421,2.4421,2.4421,0,2.4085,2.4102,2.4131,2.4165,2.4189,2.419,2.4217,2.4237,2.4268,2.4292,2.4318,2.4356,2.4386,2.4408,2.4439,2.4457,2.4459,2.4465,2.4464,2.4468,2.4429,2.4421,2.4463,2.4463,2.4463,2.4463,2.4463,2.4463,2.4112,2.415,2.416,2.4208,2.4225,2.426,2.4276,2.4297,2.4316,2.4358,2.4384,2.4398,2.4421,2.4454,2.4483,2.4488,2.45,2.4506,2.4511,2.4475,2.447,2.4466,2.4459,2.4508,2.4508,2.4548,2.4549,2.4549]}]]